Simultaneous Nadir Overpasses (SNOs) Predictions

Prediction of SNOs between LANDSAT-8 and TERRA Satellite Orbit:

Table of predicted SNOs for the next 14.0 days since TLE Epoch: 1/26/2025
Index Date (LANDSAT-8) Time (LANDSAT-8) Lat,Lon (LANDSAT-8) SZA (LANDSAT-8 ) Date (TERRA) Time (TERRA) Lat,Lon (TERRA) SZA (TERRA ) Distance(km) Time Diff (sec)
1 02/09/2025 00:42:33 -81.83, 54.32 79.39 02/09/2025 00:43:46 -81.84, 54.31 79.35 0.25 73
2 02/09/2025 01:31:59 81.83,-137.95 100.62 02/09/2025 01:33:05 81.84,-138.13 100.63 2.85 66
3 02/09/2025 02:21:26 -81.83, 29.62 79.41 02/09/2025 02:22:26 -81.84, 29.44 79.39 2.87 60
4 02/09/2025 03:10:52 81.83,-162.65 100.60 02/09/2025 03:11:44 81.83,-162.57 100.63 1.32 52



Historial Predications of SNOs between LANDSAT-8 and TERRA
